Tapachula Airport, Mexico

10:58 AM CST on January 22, 2018 (GMT -0600)
Tapachula International

Weather History for MMTP - December, 2012

Change the Weather History Date:

Friday, December 7, 2012

  Actual Average Record
Temperature  
Mean Temperature 78 °F -  
Max Temperature 86 °F 86 °F 91 °F (2013)
Min Temperature 71 °F 72 °F 66 °F (2017)
Cooling Degree Days 14    
Growing Degree Days 28 (Base 50)    
Moisture  
Dew Point 73 °F    
Average Humidity 79    
Maximum Humidity 83    
Minimum Humidity 66    
Precipitation  
Precipitation 0.00 in - - ()
Sea Level Pressure  
Sea Level Pressure 29.84 in    
Wind  
Wind Speed 3 mph ()    
Max Wind Speed 12 mph    
Max Gust Speed -    
Visibility 8.7 miles    
Events      
Averages and records for this station are not official NWS values.
T = Trace of Precipitation, MM = Missing Value Source: Averaged Metar Reports

Daily Weather History Graph

Daily Weather History Graph

Search for Another Location

Airport or City:

Trip Planner

Search our weather history database for the weather conditions in past years. The results will help you decide how hot, cold, wet, or windy it might be!

Date:

Astronomy

Dec. 07, 2012 Rise Set
Actual Time 6:22 AM CST 5:39 PM CST
Civil Twilight 5:59 AM CST 6:02 PM CST
Nautical Twilight 5:32 AM CST 6:29 PM CST
Astronomical Twilight 5:06 AM CST 6:55 PM CST
Moon 12:33 AM CST (12/7) 12:50 PM CST (12/7)
Length of Visible Light 12h 03m
Length of Day
11h 16m
Last Quarter, 38% of the Moon is Illuminated
Dec 7
Last Quarter
Dec 13
New
Dec 19
First Quarter
Dec 28
Full
Jan 4
Last Quarter

Hourly Weather History & Observations

Time (CST) Temp. Heat Index Dew Point Humidity Pressure Visibility Wind Dir Wind Speed Gust Speed Precip Events Conditions
12:40 AM 77.0 °F - 71.6 °F 83% 29.87 in 8.0 mi NE 11.5 mph - N/A   Mostly Cloudy
1:40 AM 77.0 °F - 71.6 °F 83% 29.85 in 8.0 mi Calm Calm - N/A   Mostly Cloudy
2:40 AM 77.0 °F - 71.6 °F 83% 29.80 in 8.0 mi NE 11.5 mph - N/A   Mostly Cloudy
3:50 AM 77.0 °F - 71.6 °F 83% 29.85 in 8.0 mi Calm Calm - N/A   Mostly Cloudy
4:40 AM 77.0 °F - 71.6 °F 83% 29.83 in 8.0 mi Calm Calm - N/A   Partly Cloudy
5:40 AM 77.0 °F - 71.6 °F 83% 29.82 in 8.0 mi Calm Calm - N/A   Partly Cloudy
6:40 AM 71.6 °F - 66.2 °F 83% 29.87 in 8.0 mi Calm Calm - N/A   Partly Cloudy
7:40 AM 73.4 °F - 68.0 °F 83% 29.90 in 8.0 mi Calm Calm - N/A   Clear
8:40 AM 78.8 °F - 73.4 °F 83% 29.85 in 8.0 mi Calm Calm - N/A   Clear
9:40 AM 84.2 °F 90.9 °F 73.4 °F 70% 29.92 in 8.0 mi Calm Calm - N/A   Partly Cloudy
10:40 AM 86.0 °F 93.4 °F 73.4 °F 66% 29.92 in 8.0 mi Calm Calm - N/A   Mostly Cloudy
11:40 AM 84.2 °F 90.9 °F 73.4 °F 70% 29.83 in 8.0 mi Calm Calm - N/A   Mostly Cloudy
12:40 PM 86.0 °F 93.4 °F 73.4 °F 66% 29.86 in 8.0 mi SW 6.9 mph - N/A   Mostly Cloudy
1:40 PM 84.2 °F 90.9 °F 73.4 °F 70% 29.84 in 8.0 mi WSW 11.5 mph - N/A   Mostly Cloudy
2:41 PM 84.2 °F 92.3 °F 75.2 °F 74% 29.75 in 8.0 mi SW 9.2 mph - N/A   Mostly Cloudy
3:40 PM 84.2 °F 92.3 °F 75.2 °F 74% 29.81 in 8.0 mi WSW 11.5 mph - N/A   Mostly Cloudy
4:40 PM 82.4 °F 89.5 °F 75.2 °F 79% 29.80 in 10.0 mi WSW 11.5 mph - N/A   Scattered Clouds
5:40 PM 82.4 °F 88.2 °F 73.4 °F 74% 29.75 in 10.0 mi West 5.8 mph - N/A   Scattered Clouds
6:40 PM 80.6 °F 85.4 °F 73.4 °F 79% 29.83 in 10.0 mi Calm Calm - N/A   Scattered Clouds
7:40 PM 78.8 °F - 73.4 °F 83% 29.85 in 10.0 mi Calm Calm - N/A   Scattered Clouds
8:40 PM 78.8 °F - 73.4 °F 83% 29.77 in 10.0 mi Calm Calm - N/A   Scattered Clouds
9:40 PM 78.8 °F - 73.4 °F 83% 29.90 in 10.0 mi Calm Calm - N/A   Scattered Clouds
10:40 PM 78.8 °F - 73.4 °F 83% 29.90 in 10.0 mi Calm Calm - N/A   Scattered Clouds
11:40 PM 78.8 °F - 73.4 °F 83% 29.78 in 10.0 mi Calm Calm - N/A   Scattered Clouds